Regional Weather Roundup
Issued by NWS Burlington, VT

Current Version | Previous Version | Text Only | Print | Product List | Glossary On
Versions: 1 2 3 4 5 6 7 8 9 10 11 12 13 14 15 16 17 18 19 20 21 22 23 24 25 26 27 28 29 30 31 32 33 34 35 36 37 38 39 40 41 42 43 44 45 46 47 48 49 50
000
ASUS41 KBTV 071230
RWRBTV
VERMONT REGIONAL WEATHER ROUNDUP
NATIONAL WEATHER SERVICE BURLINGTON VT
700 AM EST WED DEC 07 2016

NOTE: "FAIR" INDICATES FEW OR NO CLOUDS BELOW 12,000 FEET WITH NO
SIGNIFICANT WEATHER AND/OR OBSTRUCTIONS TO VISIBILITY.

* THESE REPORTS ARE NOT UNDER NWS QUALITY CONTROL AND/OR DO NOT
  REPORT WEATHER SUCH AS PRECIPITATION AND FOG.

VTZ001>019-071300-
_____VERMONT_____


CITY           SKY/WX    TMP DP  RH WIND       PRES   REMARKS
BURLINGTON     CLOUDY    34  31  88 S13       29.89F WCI  25
6HR MIN TEMP:  31; 6HR MAX TEMP:  34; 6HR PCP:  0.05;

MONTPELIER     CLOUDY    26  25  96 CALM      29.93F
6HR MIN TEMP:  25; 6HR MAX TEMP:  26; 6HR PCP:  0.09;

MORRISVILLE    LGT SNOW  29  27  92 S3        29.91F FOG
6HR MIN TEMP:  25; 6HR MAX TEMP:  29; 6HR PCP:  0.07;

ST. JOHNSBURY*   N/A     27  25  92 MISG      29.92S
6HR MIN TEMP:  26; 6HR MAX TEMP:  27; 6HR PCP:  0.08;

LYNDONVILLE*   LGT SNOW  24  23  96 CALM      29.92S
6HR MIN TEMP:  22; 6HR MAX TEMP:  25;

MIDDLEBURY*    FLURRIES N/A N/A N/A S3        29.92R
                                      6HR PCP:  0.03;

RUTLAND*       CLOUDY    32  30  92 S3        29.93R
6HR MIN TEMP:  31; 6HR MAX TEMP:  32; 6HR PCP:  0.05;

SPRINGFIELD    CLOUDY    30  28  92 CALM      29.97R FOG
6HR MIN TEMP:  29; 6HR MAX TEMP:  30; 6HR PCP:  0.07;

HIGHGATE*      CLOUDY    31  30  96 SE5       29.88S WCI  27
6HR MIN TEMP:  28; 6HR MAX TEMP:  31;

NEWPORT*       LGT SNOW  28  26  96 S9        29.90F WCI  19
6HR MIN TEMP:  23; 6HR MAX TEMP:  28;

BENNINGTON     CLOUDY    33  31  92 CALM      29.92R
6HR MIN TEMP:  33; 6HR MAX TEMP:  35; 6HR PCP:  0.07;

SUTTON*          N/A     23 N/A N/A MISG        N/A
ISLAND POND*     N/A     23 N/A N/A CALM        N/A
GALLUP MILLS*    N/A     23 N/A N/A MISG        N/A
UNION VILLAGE*   N/A     28 N/A N/A MISG        N/A
MT. MANSFIELD*   N/A     25 N/A N/A S25         N/A  WCI   9

_____LAKE CHAMPLAIN_____


CITY           SKY/WX    TMP DP  RH WIND       PRES   REMARKS
BURTON ISLAND*   N/A     36  34  93 SE17        N/A  WCI  25
COLCHESTER RF*   N/A     37  36  93 S28         N/A  WCI  25
DIAMOND ISL*     N/A     34  34 100 S15         N/A  WCI  24

$$

NYZ007-026>031-035-052-083-087-071300-
_____NORTHERN NEW YORK_____


CITY           SKY/WX    TMP DP  RH WIND       PRES   REMARKS
PLATTSBURGH    CLOUDY    32  30  92 S5        29.88F WCI  27
6HR MIN TEMP:  30; 6HR MAX TEMP:  32; 6HR PCP:  0.04;

SARANAC LAKE   CLOUDY    30  27  88 CALM      29.80R
6HR MIN TEMP:  26; 6HR MAX TEMP:  30; 6HR PCP:  0.11;

MASSENA        CLOUDY    30  27  88 E5        29.86R FOG     WCI  25
6HR MIN TEMP:  29; 6HR MAX TEMP:  30; 6HR PCP:  0.04;

OGDENSBURG*    DRIZZLE   36  36 100 S7        29.82S WCI  30
6HR MIN TEMP:  32; 6HR MAX TEMP:  35;

POTSDAM*       CLOUDY    36  36 100 SW6       29.83S WCI  31
WATERTOWN      CLOUDY    38  35  89 S10       29.84R WCI  31
6HR MIN TEMP:  34; 6HR MAX TEMP:  38; 6HR PCP:  0.02;

FT DRUM        CLOUDY    37  34  87 S10       29.82R WCI  30
6HR MIN TEMP:  33; 6HR MAX TEMP:  38; 6HR PCP:  0.03;

ALBANY         LGT SNOW  33  31  92 CALM      29.95R VSB 1
6HR MIN TEMP:  32; 6HR MAX TEMP:  33; 6HR PCP:  0.11;

GLENS FALLS    CLOUDY    34  31  88 CALM      29.95R FOG
6HR MIN TEMP:  33; 6HR MAX TEMP:  34; 6HR PCP:  0.06;


$$
NHZ002-005-011-071300-
_____NEW HAMPSHIRE_____


CITY           SKY/WX    TMP DP  RH WIND       PRES   REMARKS
LEBANON        LGT SNOW  31  29  92 CALM      29.95R FOG
6HR MIN TEMP:  30; 6HR MAX TEMP:  31; 6HR PCP:  0.12;

KEENE          CLOUDY    32  30  93 CALM      29.98R FOG
6HR MIN TEMP:  31; 6HR MAX TEMP:  33;

MT WASHINGTON  SNOW      21  21 100 S22         N/A  VSB 1/8 WCI   5
6HR MIN TEMP:  20; 6HR MAX TEMP:  25; 6HR PCP:  0.07;

PLYMOUTH       LGT SNOW  29  29  98 CALM      29.96S
6HR MIN TEMP:  29; 6HR MAX TEMP:  30; 6HR PCP:  0.01;

WHITEFIELD     LGT SNOW  26  22  84 CALM      29.92S FOG
6HR MIN TEMP:  23; 6HR MAX TEMP:  25; 6HR PCP:  0.03;


$$

_____REGIONAL QUEBEC LOCATIONS_____


CITY           SKY/WX    TMP DP  RH WIND       PRES   REMARKS
MONTREAL       LGT SNOW  30  28  93 NE6       29.87S WCI  24
QUEBEC CITY    CLOUDY    25  19  80 NE5       29.94F WCI  19
SHERBROOKE     LGT SNOW  25  23  93 E5        29.89F VSB 1   WCI  19

_____REGIONAL ONTARIO LOCATIONS_____


CITY           SKY/WX    TMP DP  RH WIND       PRES   REMARKS
OTTAWA         LGT SNOW  30  28  93 E8        29.81S WCI  23

______KEY______
VSB  - VISIBILITY IN MILES
WCI  - WIND CHILL INDEX
HX   - HEAT INDEX
$$
NNNN



USA.gov is the U.S. government's official web portal to all federal, state and local government web resources and services.